Location: Assche-ter-Heiden
(50.9174°N, 4.1574°E)
Time: 01:39:36
(UTC+00:00)

BREEZE M DEB (TANK) - Pass Details

Date: 20 January 2020
Orbit: 296 x 14514 km, 49.6° (Epoch: 22 February)

Event Time Altitude Azimuth Distance (km) Brightness Sun altitude
Exits shadow 05:59:11 17° 279° (W) 5,806 6.8 -14.8°
Maximum altitude 06:11:22 73° 200° (SSW) 1,270 4.1 -12.9°
Drops below altitude 10° 06:15:40 10° 115° (ESE) 2,090 6.7 -12.3°
Sets 06:17:02 0° 113° (ESE) 2,683 7.9 -12.1°
